Location: Agadir Mansour Mhndou
(31.2424°N, 8.7730°W)
Time: 06:30:56
(UTC+00:00)

Cosmos 1892 Rocket - Pass Details

Date: 16 October 2021
Orbit: 605 x 634 km, 82.5° (Epoch: 28 November)

Event Time Altitude Azimuth Distance (km) Brightness Sun altitude
Rises 18:56:05 0° 2° (N) 2,925 7.0 -12.3°
Reaches altitude 10° 18:58:26 10° 10° (N) 2,010 6.0 -12.8°
Maximum altitude 19:02:38 41° 81° (E) 916 3.9 -13.7°
Drops below altitude 10° 19:06:47 10° 151° (SSE) 1,983 5.9 -14.6°
Sets 19:09:06 0° 159° (SSE) 2,879 6.8 -15.1°
